Weather History for Rochelle, IL

Change the Weather History Date:

Thursday, April 10, 2014

  Actual Average (KRFD) Record (KRFD)
Temperature  
Mean Temperature 51 °F 47 °F  
Max Temperature 65 °F 59 °F 93 °F (1930)
Min Temperature 37 °F 36 °F 18 °F (1989)
Degree Days  
Heating Degree Days 14 18  
Month to date heating degree days 196  
Since 1 July heating degree days 6060  
Cooling Degree Days 0 0  
Month to date cooling degree days 0  
Year to date cooling degree days 0  
Growing Degree Days 1 (Base 50)    
Moisture  
Dew Point 32 °F    
Average Humidity 50    
Maximum Humidity 76    
Minimum Humidity 20    
Precipitation  
Precipitation 0.00 in 0.12 in 1.48 in (2008)
Month to date precipitation 1.09  
Year to date precipitation 6.19  
Snow  
Snow 0.00 in 0.00 in 1.50 in (1923)
Month to date snowfall 0.5  
Since 1 July snowfall 36.3  
Snow Depth -    
Sea Level Pressure  
Sea Level Pressure 29.79 in    
Wind  
Wind Speed 10 mph (WSW)    
Max Wind Speed 16 mph    
Max Gust Speed 20 mph    
Visibility 10 miles    
Events      
T = Trace of Precipitation, MM = Missing Value Source: NWS Daily Summary

Daily Weather History Graph

Daily Weather History Graph

Search for Another Location

Airport:

Trip Planner

Search our weather history database for the weather conditions in past years. The results will help you decide how hot, cold, wet, or windy it might be!

Date:

Astronomy

Apr. 10, 2014 Rise Set
Actual Time 6:24 AM CDT 7:31 PM CDT
Civil Twilight 5:55 AM CDT 8:00 PM CDT
Nautical Twilight 5:21 AM CDT 8:34 PM CDT
Astronomical Twilight 4:45 AM CDT 9:10 PM CDT
Moon 3:11 PM CDT (4/10) 3:51 AM CDT (4/10)
Length of Visible Light 14h 05m
Length of Day
13h 07m
Waxing Gibbous, 80% of the Moon is Illuminated
Apr 10
Waxing Gibbous
Apr 15
Full
Apr 22
Last Quarter
Apr 29
New
May 6
First Quarter

Hourly Weather History & Observations

Time (CDT) Temp. Windchill Dew Point Humidity Pressure Visibility Wind Dir Wind Speed Gust Speed Precip Events Conditions
12:15 AM 42.4 °F 37.5 °F 34.0 °F 72% 29.82 in 10.0 mi South 8.1 mph - N/A   Clear
12:35 AM 42.1 °F 37.1 °F 34.0 °F 73% 29.82 in 10.0 mi South 8.1 mph - N/A   Clear
12:55 AM 41.4 °F 36.2 °F 34.2 °F 76% 29.81 in 10.0 mi South 8.1 mph - N/A   Clear
1:15 AM 41.7 °F 35.6 °F 34.7 °F 76% 29.80 in 10.0 mi South 10.4 mph - N/A   Clear
1:35 AM 42.4 °F 36.1 °F 34.5 °F 74% 29.79 in 10.0 mi South 11.5 mph - N/A   Clear
1:55 AM 42.4 °F 36.1 °F 34.3 °F 73% 29.78 in 10.0 mi South 11.5 mph - N/A   Clear
2:15 AM 42.8 °F 37.5 °F 34.5 °F 73% 29.77 in 10.0 mi South 9.2 mph - N/A   Clear
2:35 AM 42.4 °F 36.5 °F 34.3 °F 73% 29.76 in 10.0 mi South 10.4 mph - N/A   Clear
2:55 AM 42.3 °F 36.3 °F 34.5 °F 74% 29.74 in 10.0 mi South 10.4 mph - N/A   Clear
3:15 AM 42.8 °F 36.2 °F 34.7 °F 73% 29.73 in 10.0 mi South 12.7 mph - N/A   Clear
3:35 AM 43.7 °F 37.3 °F 34.5 °F 70% 29.72 in 10.0 mi South 12.7 mph - N/A   Clear
3:55 AM 43.7 °F 36.9 °F 34.7 °F 71% 29.70 in 10.0 mi South 13.8 mph - N/A   Clear
4:15 AM 43.2 °F 36.6 °F 34.7 °F 72% 29.69 in 10.0 mi South 12.7 mph - N/A   Clear
4:35 AM 43.2 °F 37.4 °F 34.5 °F 72% 29.69 in 10.0 mi South 10.4 mph - N/A   Clear
4:55 AM 43.9 °F 36.8 °F 34.7 °F 70% 29.68 in 10.0 mi South 15.0 mph - N/A   Clear
5:15 AM 45.1 °F 39.9 °F 34.7 °F 67% 29.69 in 10.0 mi South 10.4 mph - N/A   Clear
5:35 AM 45.5 °F 40.8 °F 34.5 °F 65% 29.68 in 10.0 mi South 9.2 mph - N/A   Clear
5:55 AM 45.0 °F 40.6 °F 34.7 °F 67% 29.68 in 10.0 mi South 8.1 mph - N/A   Clear
6:15 AM 45.7 °F 40.2 °F 35.1 °F 66% 29.67 in 10.0 mi SSW 11.5 mph 16.1 mph N/A   Clear
6:35 AM 48.7 °F - 35.1 °F 59% 29.68 in 10.0 mi SSW 16.1 mph - N/A   Clear
6:55 AM 49.6 °F - 35.2 °F 58% 29.69 in 10.0 mi SSW 12.7 mph 19.6 mph N/A   Clear
7:15 AM 49.3 °F - 35.6 °F 59% 29.70 in 10.0 mi SSW 9.2 mph - N/A   Clear
7:35 AM 48.2 °F - 36.1 °F 63% 29.70 in 10.0 mi SW 6.9 mph - N/A   Clear
7:55 AM 50.5 °F - 37.4 °F 61% 29.70 in 10.0 mi SW 9.2 mph - N/A   Clear
8:15 AM 54.1 °F - 37.8 °F 54% 29.71 in 10.0 mi SW 11.5 mph - N/A   Clear
8:35 AM 56.3 °F - 37.8 °F 50% 29.70 in 10.0 mi SW 9.2 mph - N/A   Clear
8:55 AM 56.3 °F - 38.3 °F 51% 29.70 in 10.0 mi WSW 10.4 mph - N/A   Clear
9:15 AM 56.1 °F - 38.1 °F 51% 29.70 in 10.0 mi WSW 10.4 mph - N/A   Clear
9:55 AM 56.8 °F - 38.7 °F 51% 29.72 in 10.0 mi West 13.8 mph - N/A   Clear
10:15 AM 57.2 °F - 38.7 °F 50% 29.73 in 10.0 mi West 16.1 mph - N/A   Clear
10:35 AM 58.1 °F - 38.8 °F 49% 29.74 in 10.0 mi West 16.1 mph - N/A   Clear
10:55 AM 59.9 °F - 37.8 °F 44% 29.74 in 10.0 mi West 12.7 mph - N/A   Clear
11:15 AM 60.4 °F - 37.9 °F 43% 29.74 in 10.0 mi West 10.4 mph - N/A   Clear
11:35 AM 61.0 °F - 37.6 °F 42% 29.72 in 10.0 mi West 4.6 mph - N/A   Clear
11:55 AM 61.7 °F - 37.6 °F 41% 29.74 in 10.0 mi West 9.2 mph - N/A   Clear
12:15 PM 64.2 °F - 37.6 °F 37% 29.74 in 10.0 mi NW 10.4 mph 16.1 mph N/A   Clear
12:35 PM 63.1 °F - 36.9 °F 38% 29.73 in 10.0 mi NNW 8.1 mph - N/A   Clear
12:55 PM 64.4 °F - 37.0 °F 36% 29.74 in 10.0 mi WNW 4.6 mph - N/A   Clear
1:15 PM 65.1 °F - 35.1 °F 33% 29.76 in 10.0 mi NNW 11.5 mph - N/A   Clear
1:35 PM 64.6 °F - 33.6 °F 32% 29.77 in 10.0 mi NW 10.4 mph - N/A   Clear
2:15 PM 64.8 °F - 34.2 °F 32% 29.79 in 10.0 mi WNW 15.0 mph - N/A   Clear
2:35 PM 64.8 °F - 34.7 °F 33% 29.79 in 10.0 mi WNW 10.4 mph 16.1 mph N/A   Clear
2:55 PM 65.3 °F - 34.0 °F 31% 29.79 in 10.0 mi WNW 13.8 mph 18.4 mph N/A   Clear
3:15 PM 64.9 °F - 31.5 °F 29% 29.79 in 10.0 mi NW 15.0 mph - N/A   Clear
3:35 PM 64.4 °F - 27.3 °F 25% 29.79 in 10.0 mi WNW 11.5 mph - N/A   Clear
3:55 PM 64.6 °F - 26.4 °F 24% 29.80 in 10.0 mi West 11.5 mph - N/A   Clear
4:15 PM 64.6 °F - 24.3 °F 22% 29.81 in 10.0 mi NW 16.1 mph - N/A   Clear
4:35 PM 64.8 °F - 22.3 °F 20% 29.82 in 10.0 mi NW 12.7 mph - N/A   Clear
4:55 PM 63.9 °F - 21.7 °F 20% 29.82 in 10.0 mi NW 9.2 mph 16.1 mph N/A   Clear
5:15 PM 63.3 °F - 21.9 °F 21% 29.83 in 10.0 mi WNW 12.7 mph - N/A   Clear
5:35 PM 62.2 °F - 22.8 °F 22% 29.84 in 10.0 mi WNW 11.5 mph - N/A   Clear
5:55 PM 61.2 °F - 24.8 °F 25% 29.85 in 10.0 mi WNW 9.2 mph - N/A   Clear
6:15 PM 60.8 °F - 20.7 °F 21% 29.86 in 10.0 mi NW 10.4 mph - N/A   Clear
6:35 PM 59.7 °F - 20.8 °F 22% 29.86 in 10.0 mi NW 11.5 mph - N/A   Clear
6:55 PM 60.1 °F - 20.1 °F 21% 29.87 in 10.0 mi NW 6.9 mph - N/A   Clear
7:15 PM 58.5 °F - 20.8 °F 23% 29.89 in 10.0 mi WNW 8.1 mph - N/A   Clear
7:35 PM 55.4 °F - 23.7 °F 29% 29.89 in 10.0 mi WNW 8.1 mph - N/A   Clear
7:55 PM 50.9 °F - 26.8 °F 39% 29.89 in 10.0 mi WNW 6.9 mph - N/A   Clear
8:15 PM 48.6 °F - 26.1 °F 42% 29.90 in 10.0 mi WNW 5.8 mph - N/A   Clear
8:35 PM 47.3 °F - 26.6 °F 45% 29.91 in 10.0 mi WNW 5.8 mph - N/A   Clear
8:55 PM 45.0 °F 43.5 °F 27.5 °F 50% 29.92 in 10.0 mi West 3.5 mph - N/A   Clear
9:15 PM 41.7 °F - 23.2 °F 48% 29.92 in 10.0 mi Calm Calm - N/A   Clear
9:35 PM 40.8 °F - 27.7 °F 60% 29.93 in 10.0 mi Calm Calm - N/A   Clear
9:55 PM 39.7 °F 37.6 °F 28.0 °F 63% 29.94 in 10.0 mi West 3.5 mph - N/A   Clear
10:15 PM 37.9 °F 34.4 °F 27.7 °F 67% 29.94 in 10.0 mi West 4.6 mph - N/A   Clear
10:35 PM 39.2 °F 37.0 °F 27.5 °F 63% 29.94 in 10.0 mi NNW 3.5 mph - N/A   Clear
10:55 PM 38.5 °F 36.1 °F 26.4 °F 62% 29.94 in 10.0 mi NW 3.5 mph - N/A   Clear
11:15 PM 39.7 °F 35.6 °F 28.8 °F 65% 29.95 in 10.0 mi WNW 5.8 mph - N/A   Clear
11:35 PM 42.6 °F 38.4 °F 28.9 °F 58% 29.96 in 10.0 mi WNW 6.9 mph - N/A   Clear
11:55 PM 45.1 °F 42.0 °F 29.1 °F 54% 29.96 in 10.0 mi WNW 5.8 mph - N/A   Clear